OpenBCM V1.08-5-g2f4a (Linux)

Packet Radio Mailbox

IZ3LSV

[San Dona' di P. JN]

 Login: GUEST





  
CX2SA  > KEPS     01.08.25 01:33l 342 Lines 16283 Bytes #42 (0) @ AMSAT
BID : ORB25213.1
Read: GUEST
Subj: 2Line Orbital Elements 25213.AMSAT
Path: IZ3LSV<IK6IHL<IK7NXU<HB9ON<DK0WUE<PI8ZTM<OZ5BBS<CX2SA
Sent: 250801/0024Z @:CX2SA.SAL.URY.SOAM #:54361 [Salto] FBB7.00e $:ORB25213.1
From: CX2SA@CX2SA.SAL.URY.SOAM
To  : KEPS@AMSAT


QST de W1STR

AMSAT Orbital Elements for Amateur Satellites in TLE Format
>From Orbital Analysis Office
New England Sci-Tech STEM Education Center
Natick, MA August 01, 2025
To all radio amateurs


These element sets describe the orbits of various satellites
in use by the amateur radio community. For details see:
www.amsat.org/keplerian-elements-formats/

A daily update of element sets is available at:
www.amsat.org/tle/daily-bulletin.txt
or without bulletin text:
www.amsat.org/tle/dailytle.txt


AO-07
1 07530U 74089B   25212.60590914 -.00000040  00000-0  41064-4 0  9993
2 07530 101.9948 217.4257 0012412  24.7134  88.1392 12.53690495320345
UO-11
1 14781U 84021B   25212.86738922  .00001417  00000-0  15442-3 0  9995
2 14781  97.7580 178.2161 0008346 153.7058 206.4584 14.89512102230428
AO-27
1 22825U 93061C   25212.17606157  .00000088  00000-0  50730-4 0  9998
2 22825  98.7335 273.9811 0007702 328.4993  31.5727 14.30813421661095
FO-29
1 24278U 96046B   25212.58079265 -.00000026  00000-0  10150-4 0  9992
2 24278  98.5682  99.6181 0349471 207.7301 150.4815 13.53250957429802
NOAA-15
1 25338U 98030A   25212.83859257  .00000192  00000-0  96549-4 0  9999
2 25338  98.5338 236.7079 0009823 199.9069 160.1730 14.27004899415853
GO-32
1 25397U 98043D   25212.53515156  .00000081  00000-0  55012-4 0  9999
2 25397  98.9740 192.7482 0002316  72.8592 287.2840 14.24325881405685
ISS
1 25544U 98067A   25212.87175611  .00012075  00000-0  21728-3 0  9996
2 25544  51.6340  85.5975 0001854 137.6737 222.4395 15.50255049522093
NO-44
1 26931U 01043C   25212.75813090  .00000181  00000-0  98745-4 0  9991
2 26931  67.0526 352.9287 0006474 276.7330  83.3035 14.31756031244737
SO-50
1 27607U 02058C   25212.86066084  .00001050  00000-0  14728-3 0  9998
2 27607  64.5530  39.1386 0061881 322.7400  36.9419 14.81750156217188
CO-55
1 27844U 03031E   25212.88583838  .00000329  00000-0  16219-3 0  9991
2 27844  98.6768 220.4860 0010429  41.5816 318.6154 14.24030363146111
CO-57
1 27848U 03031J   25212.50728791  .00000284  00000-0  14447-3 0  9994
2 27848  98.6794 220.0785 0010578  58.4915 301.7296 14.23360135145759
RS-22
1 27939U 03042A   25212.87514913  .00001173  00000-0  19312-3 0  9990
2 27939  98.3327  23.6049 0010973 198.4057 296.8608 14.72456977168525
CO-58
1 28895U 05043F   25212.34781268  .00001757  00000-0  29324-3 0  9998
2 28895  98.2565 357.3673 0015343 139.5103 220.7247 14.71159694 54551
CO-65
1 32785U 08021C   25212.54399381  .00006657  00000-0  47469-3 0  9997
2 32785  97.7879 184.1159 0010590  43.9158 316.2907 15.04857304936898
CO-66
1 32791U 08021J   25212.86880064  .00013745  00000-0  64478-3 0  9997
2 32791  97.7310 194.1227 0003511  25.2325 334.9080 15.19781225938510
RS-30
1 32953U 08025A   25212.87425866  .00000031  00000-0  15526-3 0  9991
2 32953  82.5024 194.6572 0018052 293.7268  66.1918 12.43166696780035
NOAA-19
1 33591U 09005A   25212.80180652  .00000156  00000-0  10736-3 0  9999
2 33591  98.9945 277.7927 0013261 212.4644 147.5713 14.13396723849484
SRMSAT
1 37841U 11058D   25212.64829292  .00000413  00000-0  80375-4 0  9997
2 37841  19.9703 199.4586 0011537 277.7514 240.7866 14.11448632712474
ZACUBE-1
1 39417U 13066B   25212.46019815  .00003615  00000-0  31332-3 0  9996
2 39417  97.7823 169.2218 0042413 237.8276 121.8828 14.97059038632670
Delfi-N3xt
1 39428U 13066N   25212.51923258  .00006291  00000-0  63382-3 0  9992
2 39428  97.8309 129.6030 0083630 188.2254 171.7598 14.88896998626805
GOMX-1
1 39430U 13066Q   25212.84371468  .00001981  00000-0  31157-3 0  9997
2 39430  97.6791  68.2911 0132882  25.7629 335.0116 14.67822052623076
LO-74
1 39440U 13066AA  25212.38442962  .00005117  00000-0  51412-3 0  9996
2 39440  97.8505 156.5997 0061899  10.7505 349.5020 14.90271412629156
AO-73
1 39444U 13066AE  25212.62157089  .00006538  00000-0  48288-3 0  9995
2 39444  97.7867 174.7641 0040579 207.2169 152.6930 15.02922025631400
DTUSAT-2
1 40030U 14033W   25212.89112863  .00007548  00000-0  48343-3 0  9997
2 40030  98.0581 187.2707 0007694 236.5988 123.4504 15.08844916604790
EO-80
1 40032U 14033Y   25212.84238263  .00006761  00000-0  43253-3 0  9998
2 40032  98.0470 186.8020 0008785 171.3360 188.8020 15.08919572604771
LILACSAT-2
1 40908U 15049K   25212.80574192  .00013013  00000-0  32814-3 0  9997
2 40908  97.5051 234.4456 0007882 344.4110  15.6891 15.39972951546264
IO-86
1 40931U 15052B   25151.18580175  .00001241  00000-0  78118-4 0  9996
2 40931   6.0006  24.0987 0012733 338.8432  21.1169 14.78805930523047
Horyu-4
1 41340U 16012D   25212.14112694  .00025021  00000-0  62639-3 0  9991
2 41340  30.9953 144.6972 0007424 243.9075 116.0807 15.38827501520733
Lapan A3
1 41603U 16040E   25212.82184463  .00003784  00000-0  13183-3 0  9994
2 41603  97.1388 215.3917 0012870  84.6904 275.5806 15.30168880505776
CAS-2T
1 41847U 16066G   25212.80613313  .00001006  00000-0  15128-3 0  9997
2 41847  98.4179 286.8074 0345976  20.6908 340.7904 14.43626914458552
CAS-4B
1 42759U 17034B   25212.81074673  .00102544  00000-0  79323-3 0  9993
2 42759  43.0058   9.0442 0023142 297.0620  62.7886 15.70467963450796
CAS-4A
1 42761U 17034D   25212.85702625  .00115030  00000-0  81946-3 0  9993
2 42761  43.0096   5.2368 0024113 302.0202  57.8324 15.72330903450830
TechnoSat
1 42829U 17042E   25212.67988790  .00004631  00000-0  35661-3 0  9993
2 42829  97.3933  18.8943 0017606 103.0943 257.2248 15.01996499438541
AO-91
1 43017U 17073E   25212.58244192  .00010229  00000-0  51562-3 0  9996
2 43017  97.5178  82.0417 0170045 349.9122   9.8705 15.05536639417030
S-Net D
1 43186U 18014G   25212.77962789  .00005012  00000-0  29330-3 0  9991
2 43186  97.5564 115.1535 0010438  53.5354 306.6836 15.12247432410268
S-Net B
1 43187U 18014H   25212.32252938  .00005167  00000-0  30244-3 0  9998
2 43187  97.5569 114.6755 0011051  50.0790 310.1409 15.12222609410197
S-Net A
1 43188U 18014J   25212.77983743  .00004964  00000-0  29050-3 0  9990
2 43188  97.5578 115.2851 0010936  49.6257 310.5927 15.12252708410265
S-Net C
1 43189U 18014K   25212.78825283  .00005234  00000-0  30623-3 0  9995
2 43189  97.5595 115.3167 0012238  42.0251 318.1916 15.12224530408816
Ten-Koh
1 43677U 18084G   25212.47136083  .00002513  00000-0  20300-3 0  9991
2 43677  98.0848  26.7806 0009035  93.6376 266.5880 15.00775921368027
PO-101
1 43678U 18084H   25212.80885271  .00001703  00000-0  14756-3 0  9997
2 43678  98.1065  30.9409 0008710 108.9794 251.2372 14.98526888368208
QO-100
1 43700U 18090A   25212.26768147  .00000150  00000-0  00000-0 0  9991
2 43700   0.0155  81.6068 0001165  48.7078 300.9549  1.00273219 24453
MinXSS-2
1 43758U 18099A   25212.44726344  .00017094  00000-0  64412-3 0  9991
2 43758  97.4984 278.6907 0010390 339.2170  20.8645 15.27102099364887
AO-95
1 43770U 18099N   25212.60537441  .00009811  00000-0  48447-3 0  9999
2 43770  97.4876 270.1323 0011055  39.5025 320.7013 15.18029830364442
RANGE-A
1 43773U 18099R   25212.37977179  .00004343  00000-0  27453-3 0  9991
2 43773  97.4449 259.2827 0011573  23.1402 337.0346 15.09490829364036
MOVE-II
1 43780U 18099Y   25194.80194206  .15913345  26116-5  37118-3 0  9995
2 43780  97.4526 273.8800 0018736 270.1080  89.8075 16.44566529363241
SNUSat 2
1 43782U 18099AA  25212.72132810  .00007523  00000-0  40290-3 0  9992
2 43782  97.4558 266.5687 0010938 340.4039  19.6771 15.15250196364399
SnugLite
1 43784U 18099AC  25212.55818178  .00010764  00000-0  52674-3 0  9993
2 43784  97.4374 266.0790 0002770   3.0071 357.1180 15.18364710364520
ITASat 1
1 43786U 18099AE  25212.58787496  .00006683  00000-0  37603-3 0  9996
2 43786  97.4528 265.7917 0014720  33.0948 327.1201 15.13487865364325
EAGLET 1
1 43790U 18099AJ  25212.53019198  .00004142  00000-0  26249-3 0  9995
2 43790  97.4729 265.5159 0012260  19.6777 340.4922 15.09424716363908
ESEO
1 43792U 18099AL  25212.67422756  .00002477  00000-0  18927-3 0  9993
2 43792  97.4443 258.2124 0011949 348.9138  11.1822 15.02777394363644
CSIM
1 43793U 18099AM  25212.20802519  .00490105  10636-3  96678-3 0  9999
2 43793  97.4687 294.7439 0007312 265.1709  94.8734 15.99997834365812
JO-97
1 43803U 18099AX  25212.41488705  .00012051  00000-0  53295-3 0  9990
2 43803  97.4624 271.0524 0006142 333.5279  26.5643 15.21823824364654
Suomi 100
1 43804U 18099AY  25212.71284902  .00011147  00000-0  53138-3 0  9998
2 43804  97.4691 270.4904 0011047 332.2064  27.8579 15.19221186364610
ISAT
1 43879U 18111D   25212.72601731  .00024324  00000-0  79620-3 0  9994
2 43879  97.5903 128.3225 0008850  30.0897 330.0851 15.31640737359652
UWE-4
1 43880U 18111E   25212.26007290  .00017349  00000-0  65151-3 0  9998
2 43880  97.5849 125.9482 0012588  38.7133 321.5005 15.27188971361518
Sparrow
1 43881U 18111F   25212.53372000  .00025795  00000-0  80973-3 0  9996
2 43881  97.6059 131.2117 0008528  67.4462 292.7682 15.32974108361747
Prox-1
1 44339U 19036A   25211.98131795  .00013213  00000-0  16391-2 0  9998
2 44339  23.9966  83.9325 0007500 298.9149  61.0595 14.80827430325647
SONATE
1 44400U 19038Q   25185.47540524  .09032085  27445-5  31847-3 0  9995
2 44400  97.6609 216.4776 0012462 246.7970 113.2018 16.43248376333575
Taurus 1
1 44530U 19059C   25212.86850427  .00006999  00000-0  12752-2 0  9994
2 44530  98.6122 354.7757 0008735 226.8371 133.2102 14.66355472311602
Duchifat 3
1 44854U 19089C   25212.78608026  .00060222  00000-0  10093-2 0  9998
2 44854  36.9421  22.2671 0005850   7.7165 352.3682 15.50758342311044
TO-108
1 44881U 19093C   25212.82525061  .00000951  00000-0  11560-3 0  9999
2 44881  97.7903 287.3797 0015051  63.2017 297.0736 14.85690877303832
